FW4632 Weather Reports


Display with metric or nautical units.
time (UTC)temp
F
wind
direction
speed
MPH
gust
MPH
rain 1hr
in
rain 24hr
in
rain mn
in
humidity
%
barometer
mb
20260507133009 34 110 1.0 5.0 0.00 0.01 0.01 87 1016.0
20260507131516 32 330 3.0 7.0 0.00 0.01 0.01 90 1016.0
20260507130012 31 307 6.0 17.0 0.00 0.01 0.01 90 1016.0
20260507124504 34 293 11.0 15.0 0.00 0.01 0.01 75 1015.7
20260507123004 35 276 5.0 9.0 0.00 0.01 0.01 70 1015.5
20260507121502 35 272 2.0 5.0 0.00 0.01 0.01 69 1015.6
20260507120001 35 271 0.0 5.0 0.00 0.02 0.01 69 1015.5
20260507114604 36 319 0.0 3.0 0.00 0.02 0.01 68 1015.4
20260507113101 36 47 0.0 2.0 0.00 0.02 0.01 67 1015.3
20260507111556 35 58 3.0 6.0 0.00 0.02 0.01 68 1015.2
20260507110054 36 82 1.0 4.0 0.00 0.02 0.01 70 1015.2
20260507104551 35 79 2.0 5.0 0.00 0.02 0.01 70 1015.1
20260507103050 36 105 2.0 5.0 0.00 0.02 0.01 70 1015.0
20260507101549 34 63 3.0 6.0 0.00 0.02 0.01 73 1015.0
20260507100047 34 79 4.0 7.0 0.00 0.03 0.01 73 1014.9
20260507094541 34 180 2.0 5.0 0.00 0.03 0.01 73 1014.9
20260507093045 33 84 2.0 8.0 0.00 0.03 0.01 75 1014.8
20260507091535 32 77 4.0 8.0 0.00 0.03 0.01 77 1014.8
20260507090034 31 180 5.0 9.0 0.00 0.05 0.01 77 1014.7
20260507084532 31 106 6.0 10.0 0.00 0.05 0.01 77 1014.6
20260507083032 31 180 8.0 10.0 0.01 0.05 0.01 75 1014.5
20260507081531 32 180 4.0 6.0 0.01 0.05 0.01 73 1014.4
20260507080037 31 180 5.0 7.0 0.01 0.10 0.01 72 1014.2
20260507074528 30 180 6.0 8.0 0.01 0.10 0.01 74 1014.1
20260507073026 30 180 6.0 9.0 0.00 0.09 0.00 74 1014.0
20260507071554 32 97 5.0 8.0 0.00 0.09 0.00 72 1013.8
20260507070021 30 180 6.0 9.0 0.00 0.10 0.00 76 1013.8
20260507064522 30 180 7.0 11.0 0.00 0.10 0.00 75 1013.6
20260507063019 30 84 8.0 12.0 0.00 0.10 0.00 73 1013.4
20260507061518 30 180 8.0 11.0 0.00 0.10 0.00 73 1013.4
20260507060017 30 180 3.0 10.0 0.00 0.10 0.00 73 1013.5
20260507054515 29 180 5.0 8.0 0.00 0.10 0.00 78 1013.4
20260507053014 30 180 6.0 8.0 0.00 0.10 0.00 76 1013.2
20260507051519 30 326 2.0 6.0 0.00 0.10 0.00 75 1013.3
20260507050012 29 63 3.0 7.0 0.00 0.10 0.00 77 1013.2
20260507044508 29 84 6.0 8.0 0.00 0.10 0.00 77 1013.1
20260507043010 28 76 9.0 11.0 0.00 0.10 0.00 78 1013.0
20260507041506 29 91 7.0 10.0 0.00 0.10 0.00 79 1013.0
20260507040005 28 77 7.0 10.0 0.00 0.10 0.00 79 1012.9
20260507034507 27 180 7.0 10.0 0.00 0.10 0.00 81 1012.9
20260507033010 26 180 7.0 9.0 0.00 0.10 0.00 85 1012.9
20260507031501 26 93 6.0 9.0 0.00 0.10 0.00 85 1012.7
20260507030100 26 180 6.0 7.0 0.00 0.10 0.00 87 1012.6
20260507024604 27 61 1.0 7.0 0.00 0.10 0.00 85 1012.6
20260507023054 27 44 2.0 9.0 0.00 0.10 0.00 88 1012.4
20260507021552 27 180 7.0 9.0 0.00 0.10 0.00 90 1012.4
20260507020052 27 180 8.0 10.0 0.00 0.10 0.00 90 1012.3
20260507014559 27 180 6.0 10.0 0.00 0.10 0.00 90 1012.2
20260507013049 27 110 7.0 9.0 0.00 0.10 0.00 89 1012.0
20260507011545 27 180 6.0 9.0 0.00 0.10 0.00 89 1012.0
20260507010041 27 180 5.0 9.0 0.00 0.10 0.00 88 1011.8
20260507004540 28 180 5.0 9.0 0.00 0.10 0.00 85 1011.7
20260507003035 29 72 7.0 11.0 0.00 0.10 0.00 86 1011.7
20260507001538 29 180 10.0 16.0 0.00 0.10 0.00 84 1011.5
20260507000032 29 180 8.0 10.0 0.00 0.10 0.00 81 1011.4
20260506234530 30 77 8.0 10.0 0.00 0.10 0.00 83 1011.4
20260506233029 29 77 9.0 11.0 0.00 0.10 0.00 80 1011.2
20260506231526 29 180 9.0 11.0 0.00 0.10 0.00 78 1011.1
20260506230024 30 180 7.0 10.0 0.00 0.10 0.00 80 1011.0
20260506224523 30 180 5.0 9.0 0.00 0.10 0.00 81 1010.9
20260506223021 30 180 7.0 9.0 0.00 0.10 0.00 82 1010.8
20260506221518 30 180 8.0 10.0 0.00 0.10 0.00 83 1010.9
20260506220030 30 180 9.0 11.0 0.00 0.10 0.10 84 1010.8
20260506214514 30 180 8.0 10.0 0.00 0.10 0.10 83 1010.8
20260506213011 30 70 9.0 13.0 0.00 0.10 0.10 85 1010.7
20260506211509 30 75 7.0 8.0 0.00 0.10 0.10 88 1010.7
20260506210013 30 180 5.0 7.0 0.00 0.10 0.10 86 1010.6
20260506204509 30 73 4.0 7.0 0.00 0.10 0.10 87 1010.6
20260506203008 30 65 6.0 8.0 0.00 0.10 0.10 91 1010.5
20260506201506 30 176 0.0 2.0 0.00 0.10 0.10 93 1010.4
20260506200005 30 251 0.0 2.0 0.00 0.10 0.10 93 1010.5
20260506194504 31 251 0.0 2.0 0.00 0.10 0.10 93 1010.4
20260506193002 31 251 0.0 2.0 0.00 0.10 0.10 93 1010.2
20260506191501 31 251 0.0 2.0 0.00 0.10 0.10 93 1010.2
20260506190100 31 251 1.0 2.0 0.00 0.11 0.10 93 1010.2
20260506184600 31 251 2.0 4.0 0.00 0.11 0.10 93 1010.2
20260506183115 31 241 3.0 6.0 0.00 0.11 0.10 92 1010.1
20260506181602 32 245 3.0 5.0 0.00 0.11 0.10 90 1010.0
20260506180114 32 207 3.0 4.0 0.00 0.13 0.10 88 1009.9
20260506174556 31 271 4.0 6.0 0.00 0.13 0.10 88 1009.9
20260506173129 32 302 3.0 6.0 0.00 0.13 0.10 89 1009.9
20260506171554 32 330 2.0 4.0 0.00 0.13 0.10 88 1009.8
20260506170053 32 318 3.0 6.0 0.00 0.13 0.10 90 1009.7
20260506164553 31 320 3.0 5.0 0.00 0.13 0.10 89 1009.7
20260506163056 31 307 5.0 7.0 0.00 0.13 0.10 89 1009.6
20260506161555 31 316 4.0 8.0 0.00 0.13 0.10 86 1009.5
20260506160049 31 306 2.0 8.0 0.00 0.16 0.10 85 1009.4
20260506154549 32 319 6.0 9.0 0.00 0.16 0.10 86 1009.3
20260506153047 33 286 3.0 5.0 0.00 0.16 0.10 84 1009.3
20260506151547 33 313 2.0 4.0 0.00 0.16 0.10 82 1009.2
20260506150045 33 302 2.0 4.0 0.00 0.16 0.10 83 1009.2
20260506144559 33 314 2.0 3.0 0.00 0.16 0.10 84 1009.1
20260506143042 32 314 0.0 2.0 0.00 0.16 0.10 84 1009.1
20260506141541 32 314 1.0 3.0 0.00 0.16 0.10 83 1009.1
20260506140040 32 314 1.0 3.0 0.00 0.17 0.10 84 1009.1
20260506134539 32 302 2.0 6.0 0.00 0.17 0.10 86 1009.0